PDT,Max TemperatureF,Mean TemperatureF,Min TemperatureF,Max Dew PointF,MeanDew PointF,Min DewpointF,Max Humidity, Mean Humidity, Min Humidity, Max Sea Level PressureIn, Mean Sea Level PressureIn, Min Sea Level PressureIn, Max VisibilityMiles, Mean VisibilityMiles, Min VisibilityMiles, Max Wind SpeedMPH, Mean Wind SpeedMPH, Max Gust SpeedMPH,PrecipitationIn, CloudCover, Events, WindDirDegrees
2012-10-1,75,62,48,58,49,43,86,67,44,30.36,30.24,30.11,10,10,10,9,2,23,0.00,2,,325
2012-10-2,64,59,53,49,41,30,80,55,28,30.30,30.21,30.15,10,10,10,13,6,18,0.00,3,,340
2012-10-3,66,57,48,45,39,34,83,54,32,30.39,30.33,30.29,10,10,10,14,7,24,0.00,0,,335
2012-10-4,66,58,50,43,40,38,68,54,41,30.31,30.28,30.25,10,10,10,15,10,17,0.00,0,,327
2012-10-5,72,60,48,44,40,35,80,54,28,30.31,30.26,30.21,10,10,10,13,7,17,0.00,0,,326
2012-10-6,75,59,43,42,38,33,76,50,22,30.25,30.19,30.12,10,10,10,12,3,,0.00,0,,319
2012-10-7,75,58,42,46,40,36,79,58,26,30.12,30.03,29.94,10,10,10,7,1,,0.00,0,,321
2012-10-8,72,58,45,48,43,38,83,62,35,30.06,29.98,29.95,10,10,9,8,2,,0.00,0,,144
2012-10-9,61,56,48,48,46,45,86,77,62,30.15,30.10,30.05,10,9,7,6,2,,0.00,4,,114
2012-10-10,55,50,46,48,46,43,93,85,72,30.06,30.03,30.00,9,5,1,5,1,,0.00,8,,253
2012-10-11,61,54,48,47,46,45,89,78,59,30.01,29.93,29.82,9,8,5,7,2,,0.00,5,,310
2012-10-12,59,54,48,53,49,45,94,86,75,30.01,29.91,29.83,10,7,2,10,3,,0.10,8,Rain,144
2012-10-13,62,58,55,57,55,51,94,86,77,30.15,30.11,30.00,10,9,2,8,4,,0.15,8,Rain,134
2012-10-14,66,60,57,59,57,55,97,91,73,30.12,29.97,29.89,10,8,2,9,3,,0.55,8,Rain,139
2012-10-15,63,58,53,60,56,50,100,92,77,29.97,29.79,29.56,10,8,2,14,4,21,0.30,7,Rain,155
2012-10-16,62,56,51,53,46,43,84,71,52,30.30,30.01,29.60,10,10,10,16,10,26,0.00,2,,170
2012-10-17,60,51,43,46,43,41,93,74,53,30.35,30.29,30.23,10,10,10,7,2,,0.00,2,,306
2012-10-18,66,56,45,54,46,41,97,75,42,30.23,29.99,29.82,10,8,2,8,2,,0.64,3,Rain,160
2012-10-19,61,54,48,56,51,43,100,86,72,29.85,29.80,29.76,10,8,2,13,6,21,0.26,8,Rain,160
2012-10-20,51,48,44,45,40,37,87,78,59,29.92,29.87,29.81,10,10,2,12,7,29,0.05,5,Rain,146
2012-10-21,54,47,39,42,40,37,93,82,55,29.91,29.87,29.79,10,10,6,7,2,,0.15,5,Rain,147
2012-10-22,46,42,37,43,40,36,97,91,79,29.77,29.64,29.59,10,8,2,9,2,,0.22,6,Rain,127
2012-10-23,53,48,42,43,40,37,100,81,57,29.89,29.81,29.66,10,10,10,8,1,,0.01,7,Rain,172
2012-10-24,54,48,44,44,42,39,93,82,61,30.19,29.99,29.87,10,9,3,6,1,,0.39,8,Rain,145
2012-10-25,54,48,44,45,43,41,93,85,64,30.43,30.34,30.18,10,10,10,4,1,,0.00,6,,177
2012-10-26,54,48,45,48,45,41,94,86,71,30.31,30.14,30.05,10,8,2,6,2,,0.09,7,Rain,138
2012-10-27,57,54,50,56,50,46,100,90,75,30.07,29.90,29.77,10,7,2,12,6,18,0.78,8,Rain,145
2012-10-28,59,55,51,57,52,48,100,89,77,29.96,29.89,29.78,10,9,3,16,8,23,0.26,6,Rain,159
2012-10-29,62,56,51,57,53,50,100,91,72,30.04,29.87,29.74,10,8,2,14,5,22,0.35,8,Rain,157
2012-10-30,57,55,53,58,55,53,100,100,96,29.98,29.85,29.77,10,6,2,6,1,,1.02,8,Rain,140
2012-10-31,59,54,50,57,54,50,100,98,84,29.76,29.70,29.63,10,8,3,7,0,,0.39,8,Rain,160